TimeCDT,TemperatureF,Dew PointF,Humidity,Sea Level PressureIn,VisibilityMPH,Wind Direction,Wind SpeedMPH,Gust SpeedMPH,PrecipitationIn,Events,Conditions,WindDirDegrees,DateUTC
12:53 AM,55.9,43.0,62,29.92,10.0,South,5.8,-,N/A,,Clear,170,2012-11-02 05:53:00
1:53 AM,55.9,44.1,64,29.92,10.0,Calm,Calm,-,N/A,,Clear,0,2012-11-02 06:53:00
2:53 AM,54.0,43.0,66,29.92,10.0,Calm,Calm,-,N/A,,Clear,0,2012-11-02 07:53:00
3:53 AM,52.0,44.1,74,29.92,10.0,SE,4.6,-,N/A,,Clear,130,2012-11-02 08:53:00
4:53 AM,55.0,45.0,69,29.92,10.0,SE,8.1,-,N/A,,Clear,140,2012-11-02 09:53:00
5:53 AM,50.0,44.1,80,29.93,10.0,Calm,Calm,-,N/A,,Clear,0,2012-11-02 10:53:00
6:53 AM,51.1,46.0,83,29.94,10.0,Calm,Calm,-,N/A,,Clear,0,2012-11-02 11:53:00
7:53 AM,53.1,48.0,83,29.95,10.0,SE,6.9,-,N/A,,Clear,140,2012-11-02 12:53:00
8:53 AM,59.0,51.1,75,29.97,10.0,SE,6.9,-,N/A,,Clear,140,2012-11-02 13:53:00
9:53 AM,64.9,53.1,65,29.98,10.0,SSE,6.9,-,N/A,,Clear,160,2012-11-02 14:53:00
10:53 AM,75.0,57.0,53,29.97,10.0,SSW,12.7,-,N/A,,Clear,200,2012-11-02 15:53:00
11:53 AM,80.1,57.9,47,29.96,10.0,SW,8.1,-,N/A,,Clear,230,2012-11-02 16:53:00
12:53 PM,82.9,57.0,41,29.94,10.0,SSW,12.7,18.4,0.00,Rain,Light Rain,210,2012-11-02 17:53:00
1:53 PM,84.9,55.9,37,29.90,10.0,SW,11.5,18.4,0.00,,Clear,220,2012-11-02 18:53:00
2:53 PM,86.0,51.1,30,29.88,10.0,South,13.8,32.2,N/A,,Clear,190,2012-11-02 19:53:00
3:53 PM,86.0,50.0,29,29.86,10.0,SSW,13.8,-,0.00,,Clear,200,2012-11-02 20:53:00
4:53 PM,86.0,48.0,27,29.85,10.0,South,13.8,-,N/A,,Clear,180,2012-11-02 21:53:00
5:53 PM,84.0,48.0,28,29.84,10.0,South,10.4,-,N/A,,Clear,190,2012-11-02 22:53:00
6:53 PM,78.1,48.9,36,29.86,10.0,South,5.8,-,N/A,,Clear,170,2012-11-02 23:53:00
7:53 PM,72.0,50.0,46,29.87,10.0,South,8.1,-,N/A,,Clear,170,2012-11-03 00:53:00
8:53 PM,72.0,48.0,43,29.88,10.0,South,8.1,-,N/A,,Clear,170,2012-11-03 01:53:00
9:53 PM,68.0,46.9,47,29.90,10.0,SSE,10.4,-,N/A,,Clear,150,2012-11-03 02:53:00
10:53 PM,63.0,48.0,58,29.91,10.0,SE,10.4,-,N/A,,Clear,140,2012-11-03 03:53:00
11:53 PM,63.0,48.9,60,29.91,10.0,SSE,8.1,-,N/A,,Clear,150,2012-11-03 04:53:00